This is the latest recevied weather packets stored in our database for station/object WB4ZUT. If no packets are shown the sender has not sent any weather packets the latest 1 day(s).
| Time | Temp. | Humidity | Pressure | Rain* | Wind** | Luminosity | Snow |
|---|---|---|---|---|---|---|---|
| 1778034306 | 10.56° C | 99% | 1007.7 hPa | 3.05 mm | 0 m/s | 0 W/m² | - |
| 1778034003 | 10.56° C | 99% | 1007.6 hPa | 0 mm | 2.24 m/s, 309° | 0 W/m² | - |
| 1778033700 | 10.56° C | 99% | 1007.5 hPa | 0 mm | 0 m/s | 0 W/m² | - |
| 1778033397 | 10.56° C | 99% | 1007.5 hPa | 0 mm | 0 m/s | 0 W/m² | - |
| 1778033095 | 10.56° C | 99% | 1007.6 hPa | 0 mm | 0.45 m/s, 49° | 0 W/m² | - |
| 1778032791 | 10.56° C | 99% | 1007.5 hPa | 0 mm | 0 m/s | 0 W/m² | - |
| 1778032489 | 10.56° C | 99% | 1007.3 hPa | 0 mm | 0 m/s | 0 W/m² | - |
| 1778032186 | 10.56° C | 99% | 1007.3 hPa | 0 mm | 0 m/s | 0 W/m² | - |
| 1778031883 | 10.56° C | 99% | 1006.6 hPa | 3.56 mm | 0.45 m/s, 43° | 0 W/m² | - |
| 1778031579 | 10.56° C | 99% | 1006.5 hPa | 7.87 mm | 0 m/s | 0 W/m² | - |
| 1778031277 | 10.56° C | 99% | 1007 hPa | 6.1 mm | 0 m/s | 0 W/m² | - |
| 1778030973 | 11.11° C | 99% | 1007.5 hPa | 1.78 mm | 0 m/s | 0 W/m² | - |
| 1778030670 | 11.11° C | 99% | 1007.4 hPa | 0 mm | 0 m/s | 0 W/m² | - |
| 1778030367 | 11.11° C | 99% | 1007.2 hPa | 0 mm | 0 m/s | 0 W/m² | - |
| 1778030065 | 10.56° C | 99% | 1007.3 hPa | 0 mm | 0 m/s | 0 W/m² | - |
| 1778029761 | 10.56° C | 99% | 1007.6 hPa | 0 mm | 0 m/s | 0 W/m² | - |
| 1778029460 | 10.56° C | 99% | 1007.3 hPa | 0 mm | 0 m/s | 0 W/m² | - |
| 1778029156 | 10.56° C | 99% | 1007.4 hPa | 0 mm | 0 m/s | 0 W/m² | - |
| 1778028854 | 11.11° C | 99% | 1007.2 hPa | 0 mm | 0 m/s | 0 W/m² | - |
| 1778028549 | 11.11° C | 99% | 1007.1 hPa | 0 mm | 0.45 m/s, 33° | 0 W/m² | - |
| 1778028247 | 11.11° C | 99% | 1007.3 hPa | 0 mm | 0.45 m/s, 54° | 0 W/m² | - |
| 1778027943 | 11.11° C | 99% | 1007.4 hPa | 0 mm | 0.45 m/s, 53° | 0 W/m² | - |
| 1778027639 | 11.11° C | 99% | 1007.4 hPa | 0 mm | 0 m/s | 0 W/m² | - |
| 1778027336 | 11.11° C | 99% | 1007.3 hPa | 0 mm | 0 m/s | 0 W/m² | - |
| 1778027032 | 11.11° C | 99% | 1007.3 hPa | 0 mm | 0 m/s | 0 W/m² | - |
* Rain latest hour (hover to see other rain measurements)
** Current wind speed in m/s (hover to see current wind gust speed)